DMSP 5D-2 F11 DEB, 35532

Orbit data source: Space-Track

DMSP 5D-2 F11 DEB, 35532 is space debris in SSO originally from a launch on Thu, 28 Nov 1991 UTC launched from the Air Force Western Test Range (AFWTR). Debris objects in space refer to the collection of defunct objects orbiting the Earth. Examples of debris include non-operational satellites, rocket bodies, and fragments generated from explosions, collisions, or faulty payload assembly.

Loading next visibility...
Identifier
35532, 1991-082CP
Orbit
SSO
Country
Flag of USUS
Related business
Manufacturer
Unknown
Mission
Spacecraft
Bus & Motor
Unknown
Mass
Unknown
Launch date (UTC)
1991-11-28 (35 years ago)
Launch vehicle
Unknown
Launch site
Air Force Western Test Range (AFWTR)
Object type
Payload
Rocket body
Debris
Shape & HBR
Unknown shape, 0.1 m
Radar Cross Section
Small (<0.1 m²)

Expand to show TLE details & history
Last TLE update: 7 hours ago

TLE from 7 hours ago
0 DMSP 5D-2 F11 DEB
1 35532U 91082CP  26208.89443162  .00019116  00000-0  38950-2 0  9998
2 35532  98.6962  10.3679 0061462 258.7025 100.7263 14.59834023673053
Epoch: 2026-07-27T21:27Z
TLE epoch observation values (Epoch: 2026-07-27T21:27:58.891Z)
Latitude
-0.00003°
Longitude
102.80107°
Altitude
705.028 km
Speed
7.499 km/s
True Right ascension
00h 41m 28s
True Declination
0° 00' 00"
Sunlit
Object was in daylight at epoch
Visualization orbit readout
Latitude
Unknown
Longitude
Unknown
Altitude
Unknown
Speed
Unknown
Apparent Right ascension
Unknown
Apparent Declination
Unknown
Sunlit
N/A
Visualization observer readout
Local Sidereal Time
18:04:59
Azimuth
Unknown
Elevation
Unknown
Doppler factor
Unknown
Orbital elements
Apogee altitude
734.262 km
Perigee altitude
647.368 km
Semi-major axis
7,068.952 km
Eccentricity
0.00615
Inclination
98.6962°
RAAN
10.3679°
Arg. of periapsis
258.7025°
True anomaly
101.41729°
Mean anomaly
100.7263°
Eccentric anomaly
101.0719°
Mean motion
3.65183 °/min
Orbital period
98.58 mins
BSTAR
0.003895
Loading maneuver chart data...
Computing Atmospheric mass density...

Documentation

Showing up to 5 results
|